TimeCDT,TemperatureF,Dew PointF,Humidity,Sea Level PressureIn,VisibilityMPH,Wind Direction,Wind SpeedMPH,Gust SpeedMPH,PrecipitationIn,Events,Conditions,WindDirDegrees,DateUTC
12:54 AM,46.9,28.0,48,30.09,10.0,West,6.9,-,N/A,,Clear,260,2013-04-05 05:54:00
1:54 AM,45.0,28.0,52,30.09,10.0,West,6.9,-,N/A,,Clear,260,2013-04-05 06:54:00
2:54 AM,44.1,28.0,53,30.09,10.0,West,8.1,-,N/A,,Clear,270,2013-04-05 07:54:00
3:54 AM,39.9,30.0,68,30.12,10.0,NW,9.2,-,N/A,,Clear,320,2013-04-05 08:54:00
4:54 AM,42.1,28.0,58,30.12,10.0,WNW,3.5,-,N/A,,Clear,290,2013-04-05 09:54:00
5:54 AM,41.0,28.0,60,30.14,10.0,NNW,5.8,-,N/A,,Clear,340,2013-04-05 10:54:00
6:54 AM,41.0,28.0,60,30.14,10.0,North,5.8,-,N/A,,Clear,10,2013-04-05 11:54:00
7:54 AM,44.1,35.1,71,30.15,10.0,ENE,9.2,-,N/A,,Clear,60,2013-04-05 12:54:00
8:54 AM,48.0,35.1,61,30.17,10.0,ENE,9.2,-,N/A,,Clear,70,2013-04-05 13:54:00
9:54 AM,53.1,35.1,50,30.19,10.0,ENE,6.9,-,N/A,,Clear,60,2013-04-05 14:54:00
10:54 AM,55.9,36.0,47,30.19,10.0,Variable,3.5,-,N/A,,Clear,0,2013-04-05 15:54:00
11:54 AM,60.1,37.9,44,30.18,10.0,NE,5.8,-,N/A,,Clear,50,2013-04-05 16:54:00
12:54 PM,63.0,37.9,40,30.15,10.0,North,3.5,-,N/A,,Clear,360,2013-04-05 17:54:00
1:54 PM,64.0,36.0,35,30.12,10.0,Variable,4.6,-,N/A,,Clear,0,2013-04-05 18:54:00
2:54 PM,66.9,37.0,33,30.08,10.0,West,4.6,-,N/A,,Clear,270,2013-04-05 19:54:00
3:54 PM,66.9,37.0,33,30.06,10.0,SW,6.9,-,N/A,,Clear,230,2013-04-05 20:54:00
4:54 PM,66.9,37.9,34,30.04,10.0,South,8.1,-,N/A,,Clear,170,2013-04-05 21:54:00
5:54 PM,66.9,37.9,34,30.02,10.0,SSW,5.8,-,N/A,,Clear,200,2013-04-05 22:54:00
6:54 PM,64.9,39.9,40,30.02,10.0,SE,9.2,-,N/A,,Clear,130,2013-04-05 23:54:00
7:54 PM,61.0,39.0,44,30.00,10.0,SE,8.1,-,N/A,,Clear,130,2013-04-06 00:54:00
8:54 PM,59.0,39.0,48,29.99,10.0,SE,8.1,-,N/A,,Clear,130,2013-04-06 01:54:00
9:54 PM,59.0,39.0,48,29.99,10.0,SE,9.2,-,N/A,,Clear,140,2013-04-06 02:54:00
10:54 PM,57.9,39.0,49,29.98,10.0,ESE,8.1,-,N/A,,Clear,120,2013-04-06 03:54:00
11:54 PM,57.9,37.9,47,29.96,10.0,SE,10.4,-,N/A,,Clear,140,2013-04-06 04:54:00